AirNav   Air Wisconsin pilot careers
 
 1017 users online  

2I3 Rough River State Park Airport
Falls of Rough, Kentucky, USA

GOING TO FALLS OF ROUGH?


FAA INFORMATION EFFECTIVE 11 OCTOBER 2018

Location

FAA Identifier: 2I3
Lat/Long: 37-36-35.3000N / 086-30-25.8000W
37-36.588333N / 086-30.430000W
37.6098056 / -86.5071667
(estimated)
Elevation: 577 ft. / 175.9 m (surveyed)
Variation: 01W (1985)
From city: 3 miles NE of FALLS-OF-ROUGH, KY
Time zone: UTC -5 (UTC -6 during Standard Time)
Zip code: 40119

Airport Operations

Airport use: Open to the public
Activation date: 05/1963
Control tower: no
ARTCC: INDIANAPOLIS CENTER
FSS: LOUISVILLE FLIGHT SERVICE STATION
NOTAMs facility: LOU (NOTAM-D service available)
Attendance: UNATNDD
Wind indicator: lighted
Segmented circle: yes
Lights: ACTVT MIRL RY 2/20; REIL RY 2 & 20 - CTAF. PAPI RY 2 & 20 OPER CONTINUOUSLY.
Beacon: white-green (lighted land airport)
Operates sunset to sunrise.

Airport Communications

CTAF/UNICOM: 122.8
WX AWOS-3PT at JQD (19 nm SW): 132.1 (270-298-7936)

Nearby radio navigation aids

VOR radial/distance  VOR name  Freq  Var
MYSr217/(21.1)MYSTIC VOR108.2001W
FTKr236/31.0FORT KNOX VOR/DME109.6001W
OWBr108/32.3OWENSBORO VOR/DME108.6004W
CCTr070/38.5CENTRAL CITY VORTAC109.8001W
EWOr267/39.5NEW HOPE VOR/DME110.8001E

 
NDB name  Hdg/Dist  Freq  Var  ID
GODMAN233/32.739603WGOI --. --- ..

Airport Services

Parking: tiedowns
Airframe service: NONE
Powerplant service: NONE
Bottled oxygen: NONE
Bulk oxygen: NONE

Runway Information

Runway 2/20

Dimensions: 3200 x 75 ft. / 975 x 23 m
Surface: asphalt, in excellent condition
Weight bearing capacity: 
Single wheel: 8.0
Runway edge lights: medium intensity
RUNWAY 2  RUNWAY 20
Latitude: 37-36.336833N37-36.841000N
Longitude: 086-30.527167W086-30.332667W
Gradient: 0.1%0.1%
Traffic pattern: leftleft
Markings: basic, in good conditionbasic, in good condition
Visual slope indicator: 2-light PAPI on left (4.00 degrees glide path)4-light PAPI on left (5.00 degrees glide path)
Runway end identifier lights: yesyes
Obstructions: 24 ft. road, 404 ft. from runway, 76 ft. right of centerline, 8:1 slope to clear28 ft. tree, 569 ft. from runway, 160 ft. left of centerline, 13:1 slope to clear

Airport Ownership and Management from official FAA records

Ownership: Publicly-owned
Owner: KY DEPT OF PARKS
2 HUDSON HOLLOW UNIT 1
FRANKFORT, KY 40601
Phone (502) 892-3367
Manager: MICHAEL RICKS, PARK MANAGER
450 LODGE ROAD
FALLS OF ROUGH, KY 40119
Phone 270-257-2311

Airport Operational Statistics

Aircraft operations: avg 25/day *
78% transient general aviation
13% local general aviation
7% military
2% air taxi
* for 12-month period ending 21 November 2016

Additional Remarks

TRANSPORTATION TO PARK LODGE AVAIL 270-257-2311.
SOUTH APRON CLSD INDEFLY.

Instrument Procedures

There are no published instrument procedures at 2I3.

Some nearby airports with instrument procedures:

KJQD - Ohio County Airport (19 nm SW)
KTEL - Perry County Municipal Airport (26 nm N)
KY8 - Hancock County Airport-Ron Lewis Field (26 nm NW)
KEKX - Addington Field Airport (28 nm E)
KFTK - Godman Army Airfield (31 nm NE)
 
Loc | Ops | Rwys | IFR | FBO | Links
Com | Nav | Svcs | Stats | Notes


 
Area around 2I3 (Rough River State Park Airport)
 
Road maps at: MapQuest Bing Google
 
Aerial photo
WARNING: Photo may not be current or correct
Aerial photo of 2I3 (Rough River State Park Airport)
Taken in December 2006

Do you have a better or more recent aerial photo of Rough River State Park Airport that you would like to share? If so, please send us your photo.

 
Sectional chart

 
Airport distance calculator
Flying to Rough River State Park Airport? Find the distance to fly.

From to 2I3

Sunrise and sunset
Times for 16-Oct-2018
 Local
(UTC-5)
 Zulu
(UTC)
Morning civil twilight06:3011:30
Sunrise06:5611:56
Sunset18:0723:07
Evening civil twilight18:3323:33

Current date and time
Zulu (UTC)  17-Oct-2018 00:32:15
Local (UTC-5)  16-Oct-2018 19:32:15
 
METAR
KKY8 
26nm NW 
170015Z AUTO 00000KT 10SM CLR 08/07 A3022 RMK A01
KFTK 
30nm NE 
162356Z AUTO 00000KT 10SM FEW110 FEW210 08/06 A3019 RMK AO2 SLP230 T00780056 10107 20078 55002
KEKX 
31nm E 
170015Z AUTO 00000KT 10SM BKN110 08/06 A3020 RMK AO2 T00810062
KOWB 
32nm W 
162356Z 23003KT 10SM CLR 08/05 A3022 RMK AO2 SLP247 T00830050 10106 20083 55002
KM21 
39nm SW 
170015Z AUTO 00000KT 10SM OVC120 08/06 A3023 RMK AO2 T00800060
KBWG 
39nm S 
162353Z AUTO 28004KT 10SM SCT110 11/08 A3021 RMK AO2 SLP231 T01060078 10122 20106 58001
KGLW 
44nm SE 
170015Z AUTO 00000KT 10SM SCT120 10/08 A3020 RMK AO2 T01000080
KHNB 
44nm NW 
162356Z AUTO 20005KT 10SM CLR 07/04 A3020 RMK AO2 SLP231 T00720039 10111 20072 55004
K2I0 
45nm W 
170015Z AUTO 26003KT 10SM CLR 08/06 A3024 RMK AO2 T00810060
KI19 
46nm NW 
170015Z AUTO 22003KT 10SM CLR 08/03 A3014 RMK AO2 T00800025
TAF
KFTK 
30nm NE 
161700Z 1617/1723 VRB06KT 9999 SCT200 QNH3020INS WND 27006KT AFT 1623 BECMG 1717/1718 32012G18KT 9999 SKC QNH3025INS TX12/1619Z TN05/1711Z
KOWB 
32nm W 
161720Z 1618/1718 VRB04KT P6SM SCT100 OVC250 FM170000 VRB03KT P6SM BKN250 FM171500 33007KT P6SM SCT250
NOTAMs
Click for the latest NOTAMs
NOTAMs are issued by the DoD/FAA and will open in a separate window not controlled by AirNav.

 

 
 

Would you like to see your business listed on this page?

 If your business provides an interesting product or service to pilots, flight crews, aircraft, or users of the Rough River State Park Airport, you should consider listing it here.  To start the listing process, click on the button below
 
Add a business
 

Other Pages about Rough River State Park Airport

Update a link
 
Copyright © AirNav, LLC. All rights reserved. Privacy Policy  Contact